Wetbulb
60.24 60.30 60.34 60.25 60.49 60.75 61.17 61.23 61.32 61.53 61.56 61.55 61.39 61.83 62.11 61.87 61.51 64.42 61.51 69.41 74.86 78.37 78.67 76.78 74.89 74.03 73.39 72.09 71.84 70.98 59.27 59.74 60.63 61.19 63.19 66.81 64.81 67.57 68.00 66.19 67.52 68.32 69.21 71.20 72.83
59.82 59.91 60.06 60.01 60.23 60.46 60.61 60.45 60.43 60.33 60.37 60.27 60.39 61.06 62.26 62.11 65.06 61.38 70.20 76.97 77.38 78.43 76.60 73.49 71.74 72.74 70.44 69.92 70.21 66.69 58.69 61.53 66.00 66.08 64.54 65.57 65.93 65.75 65.94 65.16 65.51 67.73 70.98 71.74 72.21
59.60 59.64 59.54 59.69 59.89 59.80 59.78 59.83 59.73 59.62 59.72 59.81 59.96 60.56 62.20 63.12 63.69 63.58 74.48 78.10 77.64 78.02 75.12 72.02 71.44 72.00 67.69 68.23 66.31 64.37 62.02 65.89 66.70 67.90 67.27 66.05 65.78 66.97 65.24 63.23 65.62 66.68 69.03 70.52 71.15
58.88 58.77 58.63 58.87 59.00 59.22 59.24 59.33 59.29 59.07 59.38 59.54 59.94 60.49 62.17 65.34 58.61 71.08 77.27 77.94 78.35 78.17 73.14 70.77 70.65 66.99 64.58 63.78 67.24 63.13 65.14 67.09 67.13 67.89 66.91 66.00 67.25 65.24 66.27 65.11 67.91 69.14 70.24 70.57 70.21
58.13 58.19 58.11 58.20 58.26 58.52 58.84 58.84 58.57 58.39 58.53 59.38 59.96 60.74 64.39 61.87 63.41 73.09 76.32 78.05 76.70 76.21 70.55 68.90 66.75 66.17 63.19 64.44 65.29 64.11 65.77 66.65 67.54 67.24 68.00 68.19 66.26 65.41 66.20 66.64 68.04 68.84 69.42 69.31 69.71
57.81 58.04 57.64 57.76 57.89 58.14 58.53 58.23 57.71 57.95 58.39 59.56 60.20 60.82 64.18 57.53 70.92 73.23 72.33 75.28 73.62 72.16 69.61 67.77 66.36 66.13 65.40 63.52 62.62 64.30 65.31 66.11 67.33 67.56 67.85 66.54 66.84 66.96 67.62 67.91 66.89 67.46 67.40 67.97 68.42
57.91 57.78 57.93 57.85 58.09 58.17 57.73 57.51 57.53 58.06 59.29 60.51 61.33 64.06 62.06 58.61 72.79 73.22 73.87 73.26 71.69 70.80 67.37 67.73 67.84 66.10 66.05 63.37 63.96 65.06 63.90 65.46 66.62 67.39 66.71 68.29 64.97 65.58 68.53 68.81 66.89 67.48 68.03 67.69 68.25
57.59 57.61 57.49 57.51 57.57 57.38 56.98 56.88 57.22 59.17 61.72 62.63 62.48 64.96 58.90 66.90 73.61 72.00 73.26 71.30 71.63 71.46 68.61 68.21 67.18 66.52 66.25 65.61 63.58 63.06 63.30 60.87 65.06 66.84 67.79 66.97 61.31 66.88 69.27 68.37 67.53 67.45 68.32 68.57 68.10
57.24 57.10 57.27 57.24 56.96 56.45 56.05 56.37 57.90 61.45 62.53 63.23 65.22 65.35 57.86 69.62 69.99 71.14 71.52 68.55 69.77 70.24 69.21 69.05 66.97 65.29 65.32 62.08 59.24 58.53 55.30 57.70 61.59 66.53 65.92 65.89 63.12 67.10 69.42 68.52 67.41 67.70 68.50 68.85 68.88
57.24 57.33 57.31 56.60 56.26 55.71 55.56 55.85 61.33 61.42 64.34 66.99 66.05 58.29 60.85 57.42 67.21 69.66 70.62 67.71 67.21 66.99 64.73 63.82 63.35 62.54 63.17 60.40 54.16 53.93 54.70 56.90 59.33 63.78 65.22 64.54 64.15 66.63 68.39 68.22 67.73 67.63 68.08 68.89 68.99
57.54 57.22 56.77 56.23 55.85 55.07 57.72 64.59 62.60 62.20 65.06 60.81 59.13 56.94 57.92 62.09 66.99 67.33 68.22 64.26 63.60 62.96 59.74 62.31 60.37 58.55 60.64 59.03 57.35 56.00 55.42 56.35 59.45 64.20 64.06 63.89 64.11 65.87 67.44 67.96 67.60 67.42 67.22 68.03 68.86
57.41 57.15 56.99 56.61 55.59 55.06 57.69 62.76 61.82 62.31 58.21 61.03 60.74 59.45 61.29 62.16 59.08 62.60 66.51 60.20 60.48 57.77 60.20 61.22 58.84 62.28 60.61 58.08 56.00 55.79 54.96 55.70 59.52 61.16 62.95 63.01 63.36 66.17 67.07 67.24 68.42 67.91 67.62 67.49 68.74
57.20 57.04 56.62 55.85 55.08 57.69 64.00 63.25 64.84 64.43 58.03 57.81 58.74 58.27 59.65 61.01 58.17 58.63 62.48 60.77 58.23 57.25 58.73 59.11 60.01 61.26 58.83 57.36 55.65 55.51 54.42 54.86 56.15 59.45 63.02 61.50 60.25 64.19 66.81 67.80 68.55 69.11 69.18 68.22 68.16
56.88 56.92 55.91 54.37 54.81 64.63 62.50 65.13 65.38 64.73 55.44 54.36 55.19 57.35 59.66 59.87 57.08 61.73 61.82 60.44 58.55 56.09 58.90 59.62 61.80 59.27 58.42 57.24 56.44 53.00 55.38 55.26 56.66 57.05 56.07 59.19 47.01 60.96 65.39 65.60 66.94 68.17 68.70 67.92 67.36
56.44 56.11 55.04 53.17 62.22 62.23 64.00 65.69 65.18 63.62 48.05 54.94 55.22 61.93 60.22 58.24 59.02 58.09 62.13 59.97 57.38 57.26 58.52 57.40 58.09 57.79 57.05 57.45 57.11 54.31 55.75 55.48 56.23 55.81 56.24 58.05 55.70 61.71 64.68 63.95 65.60 66.81 68.25 68.81 68.16
55.57 55.20 54.63 58.52 62.60 64.50 65.65 65.25 63.24 54.02 47.64 52.58 56.15 55.47 56.34 57.70 57.35 58.83 58.55 60.82 61.21 57.92 58.07 58.39 59.20 57.01 57.72 58.12 57.41 56.91 55.51 55.94 56.38 55.97 52.64 56.01 55.99 52.51 61.77 63.86 66.05 67.79 68.24 69.13 68.94
53.99 53.50 55.15 62.73 62.93 65.86 65.62 62.86 54.53 50.90 55.89 51.82 52.24 55.20 55.00 54.44 55.09 56.44 55.31 55.21 55.12 52.69 53.08 55.04 56.11 58.61 58.37 56.43 58.71 56.66 53.94 49.93 49.61 50.60 46.63 57.81 52.05 51.42 62.47 64.00 66.37 67.48 68.49 69.47 70.03
52.55 53.02 58.95 63.99 66.53 65.46 64.21 58.54 51.28 52.24 53.10 55.46 54.80 54.87 53.33 54.92 55.31 55.07 55.18 53.96 56.81 54.80 52.96 50.57 49.04 54.25 58.37 56.73 56.14 55.92 54.47 50.47 46.70 47.70 49.72 56.10 53.94 53.98 64.54 65.48 66.66 68.79 69.60 69.80 70.04
52.60 64.18 66.63 66.70 66.39 66.09 61.37 55.84 53.40 54.19 55.04 54.00 54.70 53.23 53.13 54.09 54.74 54.45 54.71 54.31 55.34 55.30 51.93 51.86 50.70 54.78 55.43 57.37 57.80 55.01 53.16 56.13 51.35 52.07 51.06 51.99 59.32 62.14 65.77 65.54 65.65 67.13 68.90 69.43 69.80
65.70 66.41 66.70 67.22 66.43 64.01 59.73 51.27 55.89 57.04 56.44 56.50 53.15 55.04 52.15 53.40 53.06 54.13 54.55 57.90 57.36 58.37 58.27 55.09 50.87 54.42 54.85 56.08 56.49 55.86 57.64 51.25 51.72 47.65 47.93 49.91 54.89 51.50 61.23 64.81 66.70 65.99 67.90 69.50 70.36
65.44 63.51 66.77 67.64 66.27 62.67 57.56 56.51 57.68 59.50 59.70 57.74 55.36 55.01 55.53 53.59 54.52 54.57 55.05 58.60 59.08 58.67 59.73 56.34 53.57 53.62 55.36 54.09 54.00 53.89 52.94 53.86 53.94 52.09 48.78 48.85 54.47 61.81 62.31 65.72 66.89 68.04 68.67 69.67 70.28
66.18 61.71 67.89 67.78 61.24 61.19 57.60 58.22 56.35 58.68 60.11 58.61 59.00 58.04 57.13 56.72 54.85 55.22 55.04 58.68 60.12 59.58 54.50 56.99 54.29 52.57 53.69 58.02 58.80 57.16 56.20 55.51 51.38 51.93 53.30 51.45 55.26 65.18 65.57 66.06 68.44 69.89 70.51 71.45 71.41
64.73 64.06 68.59 67.03 58.83 57.36 59.52 58.01 59.34 58.85 58.60 58.30 57.45 58.53 58.78 57.52 55.65 57.61 57.41 59.78 60.19 59.41 58.58 57.57 52.63 50.77 52.18 54.94 56.73 55.15 56.15 55.89 55.05 54.09 51.29 49.86 54.98 66.48 67.67 68.31 69.82 70.88 71.75 70.98 72.00
64.74 60.33 62.76 65.51 62.91 59.48 58.14 57.29 57.07 59.87 59.47 59.61 58.90 58.92 57.54 56.73 58.53 56.99 57.09 59.10 60.29 59.83 61.25 61.38 54.16 52.99 50.82 53.73 55.90 53.62 54.98 55.56 54.39 51.38 52.01 53.54 58.51 63.55 66.11 67.50 68.71 71.39 74.34 71.77 71.89
65.23 61.35 63.10 59.86 60.23 59.65 59.45 58.49 56.81 57.24 60.07 60.51 58.60 58.03 57.58 55.71 56.12 56.39 57.73 58.51 59.79 62.13 60.90 58.93 54.26 55.81 55.27 55.87 55.89 54.87 54.54 55.08 54.50 55.09 53.23 54.58 55.70 63.50 66.45 67.56 68.14 70.74 72.42 74.50 73.34
63.19 62.44 64.14 62.36 60.24 59.91 55.78 58.38 56.97 57.70 58.32 58.05 57.76 58.25 58.32 57.52 58.17 57.51 57.93 58.95 58.26 60.45 59.55 60.07 55.33 56.47 54.78 55.39 55.34 53.96 55.32 55.32 55.98 55.80 55.81 55.84 58.77 66.30 68.56 69.02 69.00 69.20 68.67 71.85 72.53
63.84 65.74 63.87 56.43 59.00 58.47 59.51 58.41 57.73 58.87 58.91 58.66 57.67 56.78 56.68 59.31 60.65 61.03 61.25 60.69 60.44 58.84 58.27 57.73 56.63 55.77 52.67 55.43 55.14 52.50 55.33 55.84 56.88 58.27 57.37 55.39 62.29 64.93 65.54 66.77 68.11 68.62 69.12 69.35 69.85
MSLP
1016.69 1016.29 1016.14 1015.94 1015.50 1015.07 1014.76 1014.33 1014.01 1013.67 1013.19 1012.81 1012.48 1012.26 1011.67 1011.31 1010.64 1010.22 1007.50 1006.14 1006.84 1007.60 1007.73 1006.68 1006.58 1006.26 1006.24 1004.88 1004.25 1004.42 1005.81 1002.87 1002.89 1003.01 1003.36 1004.00 1004.51 1005.24 1005.69 1005.98 1006.35 1006.51 1007.83 1008.93 1009.98
1016.53 1016.19 1015.87 1015.71 1015.38 1014.93 1014.62 1014.38 1013.91 1013.57 1013.16 1012.71 1012.36 1012.13 1011.56 1011.25 1009.62 1007.32 1006.81 1006.65 1007.06 1007.50 1007.11 1005.71 1005.09 1004.86 1003.68 1003.28 1003.60 1004.21 1005.46 1003.32 1002.58 1002.59 1003.08 1003.85 1004.59 1005.27 1005.11 1005.84 1006.38 1006.94 1008.20 1009.25 1009.86
1016.44 1016.04 1015.72 1015.50 1015.27 1014.89 1014.45 1014.16 1013.84 1013.44 1013.03 1012.61 1012.17 1011.92 1011.50 1011.06 1008.13 1005.45 1006.74 1006.81 1007.09 1006.99 1005.12 1004.60 1004.14 1003.37 1002.65 1002.34 1003.24 1003.44 1003.56 1002.70 1003.09 1003.30 1003.45 1003.82 1004.63 1004.99 1004.58 1005.57 1006.30 1007.44 1008.52 1009.30 1009.76
1016.42 1015.95 1015.59 1015.33 1015.14 1014.79 1014.33 1013.92 1013.71 1013.35 1012.78 1012.41 1012.00 1011.72 1011.37 1009.94 1006.21 1005.97 1006.84 1007.03 1007.16 1006.60 1005.11 1004.41 1003.34 1003.16 1001.86 1001.61 1002.11 1002.99 1003.87 1003.18 1003.70 1003.97 1003.55 1003.95 1004.37 1004.49 1004.58 1005.60 1006.56 1007.58 1008.52 1009.21 1009.53
1016.39 1015.81 1015.30 1015.07 1014.89 1014.63 1014.15 1013.64 1013.40 1013.11 1012.61 1012.09 1011.81 1011.65 1010.76 1007.70 1005.03 1006.44 1007.15 1007.42 1007.26 1006.68 1004.75 1003.62 1002.33 1002.20 1001.22 1001.27 1001.50 1001.67 1002.82 1003.70 1003.87 1004.30 1003.87 1004.09 1004.35 1004.53 1005.18 1006.09 1006.91 1007.62 1008.35 1008.91 1009.19
1016.30 1015.72 1015.06 1014.65 1014.46 1014.25 1013.89 1013.29 1013.00 1012.65 1012.24 1011.69 1011.53 1011.53 1009.55 1005.72 1004.83 1006.11 1006.12 1006.78 1005.77 1005.17 1004.13 1003.71 1002.78 1002.67 1001.49 1001.16 1000.99 1001.81 1002.26 1002.86 1003.70 1003.96 1003.78 1004.03 1004.39 1004.57 1005.31 1006.20 1006.96 1007.59 1007.99 1008.44 1008.76
1016.14 1015.57 1014.93 1014.28 1013.99 1013.74 1013.56 1012.91 1012.50 1012.04 1011.55 1011.20 1011.17 1010.62 1007.34 1005.03 1004.52 1005.37 1005.72 1005.25 1004.79 1004.42 1003.74 1003.58 1003.44 1002.69 1001.51 1000.42 1001.22 1001.20 1001.71 1002.26 1003.10 1003.47 1003.36 1003.04 1003.65 1004.02 1005.02 1005.85 1006.70 1007.26 1007.70 1008.11 1008.58
1015.97 1015.40 1014.83 1014.22 1013.72 1013.37 1013.16 1012.55 1011.88 1011.38 1010.76 1010.66 1010.89 1009.53 1005.13 1004.90 1004.42 1004.84 1005.05 1004.81 1005.02 1004.66 1004.26 1003.95 1003.56 1002.67 1001.46 1000.53 1000.56 1000.19 1000.04 1000.67 1001.84 1002.70 1002.36 1002.92 1003.08 1003.77 1004.92 1005.40 1006.18 1006.77 1007.30 1007.96 1008.40
1015.72 1015.28 1014.67 1014.03 1013.59 1013.04 1012.67 1012.10 1011.30 1010.77 1010.22 1010.27 1009.83 1007.60 1004.37 1005.78 1004.68 1004.32 1004.43 1004.19 1004.44 1004.39 1004.41 1004.18 1003.50 1001.78 1000.22 999.68 999.40 998.25 998.52 999.43 1001.12 1001.97 1002.20 1002.56 1002.32 1003.49 1004.57 1004.97 1005.36 1006.24 1006.85 1007.52 1008.14
1015.38 1014.92 1014.40 1013.86 1013.38 1012.86 1012.18 1011.47 1010.59 1010.58 1010.11 1009.04 1007.61 1005.99 1004.37 1003.62 1003.46 1003.98 1004.21 1004.01 1003.84 1003.86 1003.86 1003.55 1002.35 1000.44 998.93 997.74 998.69 998.65 998.34 998.73 999.66 1001.27 1001.68 1002.10 1002.11 1003.18 1003.94 1004.22 1004.52 1005.44 1006.23 1006.99 1007.49
1014.93 1014.42 1014.03 1013.57 1013.19 1012.87 1011.78 1009.61 1009.66 1008.57 1007.14 1004.40 1003.73 1003.43 1002.89 1002.78 1003.74 1003.75 1004.00 1003.95 1003.60 1003.45 1002.52 1001.81 1000.82 999.30 998.95 999.10 999.10 998.73 998.41 998.27 999.27 1000.45 1000.89 1001.23 1001.79 1002.72 1003.43 1003.68 1003.84 1004.64 1005.41 1006.31 1006.73
1014.45 1014.11 1013.66 1013.24 1012.89 1012.59 1012.09 1007.92 1006.70 1006.45 1004.47 1003.86 1003.80 1003.48 1003.04 1003.12 1002.96 1003.09 1003.82 1003.44 1002.85 1002.20 1001.79 1000.84 1000.13 998.78 999.55 999.41 999.03 998.34 997.71 997.94 998.78 999.46 1000.03 1000.79 1001.55 1002.36 1002.63 1002.93 1003.11 1003.97 1004.59 1005.46 1006.04
1013.98 1013.56 1013.20 1012.87 1012.50 1011.69 1008.78 1006.67 1006.71 1006.15 1004.19 1003.13 1002.99 1002.61 1002.76 1002.97 1001.74 1002.20 1003.21 1002.70 1001.75 1001.46 1000.47 999.82 998.98 999.50 999.81 999.18 998.48 997.68 997.99 998.43 998.43 998.53 999.56 1000.32 1002.10 1001.91 1002.47 1002.46 1002.72 1003.45 1004.02 1004.71 1005.38
1013.50 1013.13 1012.82 1012.41 1012.31 1008.20 1006.97 1006.87 1006.55 1006.33 1003.19 1002.30 1002.25 1001.89 1002.26 1001.92 1001.32 1001.20 1002.40 1001.90 1000.99 1000.41 999.89 999.73 999.18 999.77 999.75 999.06 998.72 997.48 998.57 998.56 998.21 997.70 997.62 998.74 1002.46 1001.57 1001.43 1001.74 1002.19 1002.68 1003.30 1003.96 1004.77
1013.08 1012.73 1012.53 1012.59 1010.39 1007.16 1006.86 1006.75 1006.49 1005.91 1001.72 1000.97 1001.30 1001.75 1001.29 1000.99 1000.69 1001.49 1001.93 1001.55 1000.67 1000.18 999.95 999.54 999.60 999.84 999.64 998.96 998.91 998.49 998.90 998.53 998.12 997.52 996.74 997.80 998.96 999.90 1000.28 1000.59 1001.07 1001.79 1002.61 1003.43 1004.19
1012.65 1012.40 1012.26 1011.45 1009.82 1007.06 1006.89 1006.65 1006.27 1004.16 1000.57 1000.51 1000.77 1001.15 1000.91 1000.60 1000.33 1001.22 1001.61 1001.78 1000.77 1000.32 1000.20 999.54 1000.03 1000.07 999.34 999.14 999.46 999.28 998.79 997.78 997.18 996.71 997.43 997.73 999.42 1001.21 999.22 999.22 999.98 1000.91 1001.66 1002.74 1003.70
1012.39 1012.23 1012.16 1009.53 1006.77 1006.96 1006.81 1005.87 1003.73 1000.89 1000.07 1000.07 999.96 1000.22 1000.11 999.87 1000.04 1000.68 1000.96 1001.05 1000.27 1000.19 999.42 999.54 999.54 999.67 999.89 999.40 999.02 998.96 997.86 996.05 995.73 995.75 999.11 998.56 1001.01 1001.75 998.50 998.35 998.41 999.64 1000.78 1001.96 1003.15
1012.06 1011.95 1010.29 1008.77 1007.34 1007.21 1006.22 1004.46 1001.38 1000.23 999.07 999.39 999.22 999.70 999.35 999.61 999.60 999.95 1000.13 999.96 999.98 999.71 998.36 998.12 997.88 998.49 999.03 999.12 998.18 997.72 997.21 995.97 995.55 995.61 998.01 997.83 1000.22 1001.04 998.63 998.40 998.59 998.72 1000.12 1001.44 1002.47
1011.88 1010.05 1007.89 1006.74 1007.04 1006.99 1005.44 1002.10 1000.64 1000.12 999.47 999.02 999.06 998.94 998.89 999.55 999.51 999.70 999.69 999.32 999.20 999.85 998.99 997.76 997.82 998.65 998.79 998.82 998.83 997.79 997.21 996.75 996.24 995.76 996.67 998.95 999.46 999.74 999.66 999.02 998.75 998.74 999.67 1000.97 1002.01
1010.22 1006.94 1005.76 1006.07 1006.65 1006.27 1004.09 1001.43 1001.32 1000.93 1000.04 998.92 998.23 998.43 998.71 999.20 999.44 999.09 999.56 1000.40 1000.08 1000.32 1000.00 998.66 998.16 998.42 998.99 999.10 998.78 998.35 997.52 996.53 996.08 995.92 996.67 999.23 999.59 1001.73 1000.69 1000.22 999.53 999.32 999.78 1000.54 1001.61
1009.60 1005.22 1005.29 1005.54 1006.04 1004.70 1001.81 1001.90 1001.11 1001.10 1000.38 999.28 998.99 998.90 998.58 999.07 999.05 998.97 999.64 1000.85 1001.10 1000.57 1000.65 999.51 998.38 998.24 998.81 998.02 997.04 997.73 997.47 996.77 995.83 996.22 996.39 997.72 1000.03 1000.95 1001.14 1001.12 1000.84 1000.44 999.98 1000.26 1001.22
1007.17 1003.79 1004.45 1004.99 1004.00 1001.96 1002.01 1002.11 1001.94 1000.84 1000.82 1000.48 1000.12 999.88 999.72 999.95 999.50 999.48 999.85 1000.70 1001.86 1001.33 1000.52 1000.17 998.54 997.40 997.47 998.14 998.04 997.38 996.57 996.21 995.78 996.55 997.04 997.73 1000.71 1001.53 1001.98 1001.82 1002.06 1002.17 1001.55 1000.91 1000.76
1006.23 1004.08 1003.58 1003.39 1002.09 1002.07 1002.61 1002.47 1002.39 1001.56 1001.51 1001.12 1001.01 1001.08 1001.01 1000.69 1000.78 1000.49 1000.93 1002.20 1002.21 1001.50 1001.01 1000.06 999.18 997.42 997.98 998.29 998.33 997.64 997.34 997.38 996.72 996.69 997.22 998.19 1000.18 1002.01 1002.52 1002.82 1003.20 1003.13 1002.71 1002.22 1001.87
1006.88 1003.84 1003.35 1002.99 1003.02 1002.32 1002.53 1002.58 1002.62 1003.05 1002.64 1002.48 1002.14 1001.93 1001.67 1001.31 1001.35 1001.32 1001.28 1002.04 1002.49 1002.29 1002.53 1001.83 999.26 997.70 997.55 997.65 997.01 997.54 998.21 998.44 997.98 997.21 997.76 998.59 1000.48 1002.29 1003.30 1004.21 1005.03 1004.96 1004.26 1003.17 1002.79
1007.35 1005.88 1005.86 1003.56 1003.73 1003.42 1003.40 1003.73 1003.26 1003.13 1003.42 1003.33 1002.93 1002.83 1002.54 1001.93 1001.81 1001.63 1001.94 1001.81 1002.29 1002.65 1002.15 1000.98 999.31 998.57 998.37 998.81 998.36 997.98 998.27 998.60 998.90 998.59 998.97 999.31 1000.50 1002.92 1004.57 1005.91 1006.62 1006.28 1005.92 1005.38 1004.17
1008.54 1008.06 1006.51 1005.61 1005.40 1004.73 1004.96 1004.71 1004.56 1004.58 1004.61 1003.73 1003.83 1003.93 1003.83 1003.18 1003.04 1002.89 1002.96 1002.50 1002.10 1002.51 1001.99 1000.68 1000.07 999.88 999.54 999.28 999.26 998.74 998.88 999.11 999.44 999.85 1000.44 1000.74 1001.66 1003.89 1005.61 1006.83 1007.02 1007.45 1007.67 1007.13 1006.83
1010.92 1009.52 1008.34 1006.83 1005.53 1005.42 1005.35 1005.92 1005.91 1006.10 1005.68 1005.66 1005.50 1005.06 1004.23 1004.74 1005.04 1004.82 1004.28 1003.67 1003.16 1002.98 1002.51 1001.88 1000.85 1000.11 999.89 999.39 999.49 999.47 999.35 999.24 999.57 1000.37 1001.21 1001.51 1003.08 1004.35 1005.64 1006.70 1007.20 1007.45 1007.91 1008.17 1008.36
Wind_Speed
17 18 16 16 17 17 17 17 17 16 17 17 16 13 13 13 16 8 8 6 7 19 10 13 9 9 9 11 11 1 6 7 10 5 12 9 12 7 11 12 10 5 23 23 22
18 18 18 17 16 17 17 17 17 17 17 16 16 15 14 12 11 13 10 10 24 18 13 11 12 11 10 9 4 10 7 6 14 7 13 11 10 10 10 7 10 16 22 23 20
19 19 19 18 17 17 18 17 17 17 16 16 16 15 13 14 11 9 6 15 18 21 13 4 5 14 16 7 5 7 7 8 10 6 8 12 12 9 9 10 14 19 22 22 20
19 19 19 18 18 18 18 17 16 17 17 16 17 15 12 10 3 9 8 15 14 16 11 7 13 12 11 4 7 7 1 6 7 4 6 8 6 10 7 12 15 20 22 20 19
18 19 19 19 18 18 18 18 17 16 18 17 16 14 10 10 3 9 10 12 15 15 12 8 10 9 4 6 5 5 10 4 4 4 9 7 6 10 12 14 17 20 20 19 17
18 18 20 20 19 19 18 19 18 18 17 17 13 10 10 13 6 13 14 17 15 14 9 9 7 8 8 2 5 5 4 7 7 8 8 11 9 9 13 17 18 18 18 18 17
18 19 20 21 20 20 19 20 20 18 15 14 10 7 12 5 4 14 15 16 9 11 7 3 9 12 9 5 2 9 11 8 11 10 9 14 15 12 15 19 17 17 15 16 15
18 18 20 21 21 21 20 20 21 18 14 11 7 10 1 3 5 12 15 11 6 5 9 5 10 14 15 4 11 14 11 11 14 14 8 10 12 11 16 17 17 18 16 15 16
16 17 18 20 21 21 20 21 21 13 2 7 10 11 7 3 13 14 12 12 9 7 6 8 13 17 14 14 11 1 7 12 10 12 8 12 11 15 19 17 17 17 17 16 16
16 16 16 19 19 19 22 21 5 8 8 9 9 9 8 11 13 13 11 6 9 8 9 11 11 17 17 7 2 7 6 8 14 11 10 13 10 16 18 18 17 18 18 17 17
15 15 15 16 17 16 16 7 8 9 14 7 6 3 8 11 11 12 12 11 10 10 15 13 13 12 7 7 6 6 3 8 11 12 12 10 12 15 17 16 16 17 19 18 18
16 15 14 13 13 12 9 8 9 8 8 12 3 3 2 15 11 14 13 12 14 15 18 10 14 4 4 5 6 6 8 7 8 11 12 10 10 14 18 17 17 17 18 19 19
16 14 13 12 13 9 10 7 6 7 9 11 11 13 13 11 13 16 15 15 11 18 19 15 5 9 5 6 11 5 10 7 10 4 11 8 11 16 16 17 15 17 16 18 19
15 13 10 12 6 3 5 3 7 4 8 11 12 8 7 12 7 15 17 13 9 15 15 14 12 2 9 10 7 5 5 7 9 14 8 6 14 30 20 17 17 17 16 17 19
13 10 9 6 11 6 8 4 6 6 8 10 12 8 13 15 14 11 13 10 14 11 6 11 9 11 13 12 5 11 8 11 14 16 18 7 11 13 18 19 19 18 18 16 17
12 9 7 7 8 5 4 5 7 10 4 8 10 13 14 13 8 9 13 11 8 7 7 18 4 5 11 2 6 9 13 19 17 16 10 4 18 19 13 13 18 20 19 19 18
9 6 7 8 4 1 6 7 9 7 6 10 16 18 18 10 8 14 14 16 11 12 15 16 16 12 11 13 12 10 19 14 12 7 11 12 18 19 12 4 14 20 19 20 19
8 4 11 8 5 6 7 10 6 3 6 3 12 15 15 11 8 8 13 13 11 10 8 10 18 18 13 12 17 10 13 11 4 7 3 5 11 11 8 6 1 16 19 18 19
5 7 8 6 6 5 9 10 9 8 1 8 10 13 6 7 5 9 11 11 6 13 13 2 4 3 2 10 11 16 12 11 12 6 9 3 24 20 17 14 7 11 16 18 18
6 7 3 4 7 7 9 12 7 4 2 5 6 4 13 13 9 11 9 4 2 4 10 6 3 7 7 10 11 16 13 10 10 3 7 11 15 10 6 13 12 7 9 15 17
8 6 6 6 6 9 1 6 9 6 7 10 3 2 6 6 9 9 6 11 4 3 7 14 12 12 9 14 10 11 13 11 10 8 7 4 12 12 11 11 11 11 2 12 15
8 3 5 5 10 5 9 5 5 5 2 3 6 8 7 2 5 2 4 12 6 6 9 14 10 8 10 5 5 13 14 9 8 8 3 9 8 12 11 13 10 10 10 12 12
7 3 4 8 7 7 5 7 11 9 7 4 4 7 3 1 2 6 3 5 5 3 10 4 11 5 6 11 9 12 5 10 14 9 5 8 13 14 12 14 12 10 8 4 5
7 3 5 1 5 9 3 4 7 4 7 5 3 4 5 2 3 5 7 5 1 7 5 5 16 18 7 12 3 15 4 2 14 11 9 9 18 13 14 14 13 13 15 7 2
3 6 6 3 4 7 5 5 4 5 2 5 3 6 8 6 4 5 3 4 8 7 5 9 14 3 9 5 10 3 2 4 10 12 9 15 11 15 15 13 9 9 6 13 11
7 7 4 3 2 8 6 3 7 8 7 4 8 8 6 9 8 12 5 9 7 4 10 13 11 5 12 4 9 8 10 5 9 7 5 10 9 14 13 8 7 8 9 9 12
7 3 6 5 3 7 9 6 6 7 4 4 8 9 8 11 6 12 11 13 12 9 10 11 13 8 12 13 7 10 14 13 11 6 6 7 13 8 9 8 5 6 8 6 8
Wind_Direction
334 333 336 339 336 334 334 333 334 332 328 325 325 324 317 315 297 216 241 85 170 171 219 180 188 196 205 255 248 83 340 142 92 108 121 131 113 78 103 139 155 57 135 139 147
332 331 332 336 334 332 333 333 331 330 326 322 321 322 316 320 269 241 111 110 148 167 204 184 194 201 208 199 235 128 203 107 107 130 117 119 105 133 133 128 128 104 121 133 151
331 330 330 332 332 331 330 330 328 324 320 316 314 315 313 305 257 93 148 141 165 186 211 266 249 243 227 179 113 339 21 65 75 61 151 117 135 162 135 125 145 136 144 149 157
328 327 326 328 329 328 327 325 323 318 313 310 307 309 310 257 216 76 143 159 178 207 245 224 231 290 140 192 151 120 354 8 108 129 143 146 143 135 68 113 135 142 150 154 166
327 325 324 325 326 326 324 320 318 313 307 301 300 304 281 216 61 116 146 164 184 222 227 244 292 317 64 99 128 86 147 165 90 145 197 135 169 125 109 127 136 146 153 163 170
325 323 322 322 324 324 322 318 314 309 300 292 287 295 250 241 97 139 160 168 193 218 227 254 345 339 296 0 9 80 133 165 159 170 154 180 162 176 137 142 147 155 163 168 171
319 320 319 318 321 321 321 315 310 304 292 280 264 248 258 50 126 162 162 190 189 232 253 273 302 291 339 190 72 149 161 179 167 176 182 186 165 197 153 152 157 165 169 162 169
320 319 318 317 318 318 318 311 307 301 286 258 231 233 281 106 171 171 180 191 218 230 277 290 280 283 262 300 206 211 218 171 147 171 192 183 170 171 164 166 168 168 171 166 167
317 317 315 314 315 316 315 306 299 296 324 170 208 240 165 141 190 177 191 187 192 211 248 287 272 266 280 234 272 311 86 127 144 186 159 219 126 165 167 179 176 174 172 176 170
311 307 305 312 313 316 311 291 298 277 221 215 269 237 177 197 176 173 205 240 199 214 231 237 244 257 227 302 85 22 360 75 129 174 195 212 114 164 175 194 180 178 177 184 179
305 306 308 310 310 313 314 206 204 191 215 288 168 281 132 100 153 184 184 211 219 217 233 199 245 230 304 26 339 294 312 91 96 150 191 189 153 170 181 197 180 182 180 187 187
303 301 299 301 302 303 279 259 43 346 252 213 228 301 286 170 180 180 184 212 209 223 223 215 240 300 31 294 287 265 254 87 113 158 233 166 191 171 181 192 184 190 186 187 195
305 304 302 301 307 272 252 30 345 318 250 149 196 204 175 205 195 175 199 215 218 230 224 238 187 54 263 287 274 168 13 355 344 213 228 154 351 180 188 189 190 189 193 191 195
309 307 303 308 275 151 206 88 309 287 255 132 182 190 180 221 196 139 197 207 221 228 223 226 267 223 254 271 283 46 21 311 278 287 178 162 211 238 180 187 192 192 194 192 190
312 305 299 292 321 219 53 301 313 239 223 139 132 108 173 213 119 181 198 217 256 232 265 216 219 234 239 256 356 334 338 295 288 282 268 219 102 157 173 186 190 195 190 194 194
318 303 301 202 224 324 288 295 241 232 123 142 137 179 178 220 179 135 180 247 277 260 217 267 139 276 274 324 251 302 284 260 245 241 332 347 84 298 162 192 191 192 193 191 190
316 280 249 306 23 13 288 241 230 265 159 150 171 168 192 185 152 170 184 200 204 209 211 209 237 226 232 250 229 234 263 270 224 214 194 217 74 243 88 103 174 189 191 184 187
313 248 198 279 306 276 250 240 258 30 93 122 146 179 198 175 138 194 183 204 222 298 282 210 201 205 205 238 262 238 282 299 320 322 245 202 57 311 30 84 83 162 178 186 185
318 203 222 153 208 250 260 254 33 57 320 147 162 176 171 169 273 192 198 223 178 200 276 281 183 85 279 238 240 243 224 277 300 253 274 137 153 30 47 50 115 135 170 180 188
265 246 93 140 188 236 247 39 99 72 244 256 179 223 171 171 208 218 177 60 300 267 284 307 203 176 140 222 230 267 321 255 220 304 290 347 128 169 55 42 29 111 165 172 187
244 234 92 176 202 234 51 58 84 90 336 347 76 297 67 159 236 203 152 87 4 286 248 264 258 143 185 212 190 184 226 246 318 328 313 209 76 52 58 60 32 15 45 168 184
277 253 116 184 260 13 63 5 279 76 61 76 8 12 40 264 225 131 189 52 4 317 217 237 300 203 156 96 300 292 332 295 246 191 253 312 100 75 50 48 39 29 358 351 177
283 51 169 235 289 113 137 84 21 34 18 23 47 17 354 30 186 327 60 88 351 349 347 219 258 225 212 177 201 259 172 292 312 318 319 317 118 72 55 55 40 27 11 345 293
280 222 152 281 330 331 46 5 121 34 49 30 5 251 247 221 285 167 183 134 57 32 323 292 261 281 71 332 203 199 203 303 300 294 1 54 110 68 57 50 25 12 354 18 177
339 57 360 19 62 360 1 322 12 28 31 1 129 6 340 286 224 196 242 200 181 148 241 265 272 293 323 323 303 318 236 199 272 326 328 347 8 68 53 48 30 13 37 14 28
349 335 319 354 177 285 139 50 355 4 340 45 331 350 322 313 350 344 3 283 307 12 308 278 275 309 290 197 284 284 254 268 301 285 280 274 87 80 99 89 64 59 27 29 44
3 341 278 122 282 273 51 23 8 345 119 358 334 311 280 25 347 308 295 292 285 287 288 299 285 279 256 272 229 247 251 256 231 344 317 317 67 96 97 90 71 71 64 63 54